Jackson Hawkins Field, MS

4:33 AM CST on December 17, 2017 (GMT -0600)
Hawkins

Weather History for KHKS - February, 2014

Change the Weather History Date:

Monday, February 24, 2014

  Actual Average Record
Temperature  
Mean Temperature 57 °F 53 °F  
Max Temperature 66 °F 63 °F 81 °F (2017)
Min Temperature 48 °F 42 °F 26 °F (2015)
Degree Days  
Heating Degree Days 8 12  
Month to date heating degree days 363  
Since 1 July heating degree days 1815  
Cooling Degree Days 0 0  
Month to date cooling degree days 0  
Year to date cooling degree days 4  
Growing Degree Days 7 (Base 50)    
Moisture  
Dew Point 42 °F    
Average Humidity 57    
Maximum Humidity 71    
Minimum Humidity 42    
Precipitation  
Precipitation 0.00 in 0.14 in 1.39 in (1953)
Month to date precipitation 3.77  
Year to date precipitation 8.78  
Sea Level Pressure  
Sea Level Pressure 30.11 in    
Wind  
Wind Speed 5 mph (NE)    
Max Wind Speed 8 mph    
Max Gust Speed -    
Visibility 10 miles    
Events      
T = Trace of Precipitation, MM = Missing Value Source: NWS Daily Summary

Daily Weather History Graph

Daily Weather History Graph

Search for Another Location

Airport or City:

Trip Planner

Search our weather history database for the weather conditions in past years. The results will help you decide how hot, cold, wet, or windy it might be!

Date:

Astronomy

Feb. 24, 2014 Rise Set
Actual Time 6:34 AM CST 5:54 PM CST
Civil Twilight 6:09 AM CST 6:19 PM CST
Nautical Twilight 5:40 AM CST 6:47 PM CST
Astronomical Twilight 5:12 AM CST 7:16 PM CST
Moon 2:22 AM CST (2/24) 1:05 PM CST (2/24)
Length of Visible Light 12h 09m
Length of Day
11h 20m
Waning Crescent, 28% of the Moon is Illuminated
Feb 24
Waning Crescent
Mar 1
New
Mar 8
First Quarter
Mar 16
Full
Mar 23
Last Quarter

Hourly Weather History & Observations

Time (CST) Temp. Dew Point Humidity Pressure Visibility Wind Dir Wind Speed Gust Speed Precip Events Conditions
12:53 AM 52.0 °F 43.0 °F 71% 30.08 in 10.0 mi North 5.8 mph - N/A   Overcast
1:53 AM 51.1 °F 42.1 °F 71% 30.09 in 10.0 mi NNW 4.6 mph - N/A   Overcast
2:53 AM 52.0 °F 42.1 °F 69% 30.09 in 10.0 mi North 5.8 mph - N/A   Overcast
3:53 AM 51.1 °F 41.0 °F 68% 30.10 in 10.0 mi North 6.9 mph - N/A   Overcast
4:53 AM 50.0 °F 39.0 °F 66% 30.12 in 10.0 mi North 5.8 mph - N/A   Clear
5:53 AM 50.0 °F 37.9 °F 63% 30.14 in 10.0 mi NNE 8.1 mph - N/A   Mostly Cloudy
6:53 AM 48.9 °F 37.9 °F 66% 30.15 in 10.0 mi Variable 3.5 mph - N/A   Overcast
7:53 AM 50.0 °F 37.9 °F 63% 30.17 in 10.0 mi ENE 5.8 mph - N/A   Clear
8:53 AM 53.1 °F 39.0 °F 59% 30.17 in 10.0 mi East 5.8 mph - N/A   Clear
9:53 AM 57.9 °F 39.0 °F 49% 30.16 in 10.0 mi ENE 4.6 mph - N/A   Clear
10:53 AM 61.0 °F 39.0 °F 44% 30.15 in 10.0 mi Variable 3.5 mph - N/A   Clear
11:53 AM 64.9 °F 41.0 °F 42% 30.13 in 10.0 mi Calm Calm - N/A   Clear
12:53 PM 64.9 °F 43.0 °F 45% 30.11 in 10.0 mi North 4.6 mph - N/A   Clear
1:53 PM 64.9 °F 43.0 °F 45% 30.09 in 10.0 mi ENE 8.1 mph - N/A   Clear
2:53 PM 66.0 °F 43.0 °F 43% 30.09 in 10.0 mi ENE 5.8 mph - N/A   Clear
3:53 PM 66.0 °F 43.0 °F 43% 30.07 in 10.0 mi Calm Calm - N/A   Clear
4:53 PM 64.9 °F 43.0 °F 45% 30.08 in 10.0 mi Calm Calm - N/A   Partly Cloudy
5:53 PM 62.1 °F 44.1 °F 52% 30.09 in 10.0 mi NNE 5.8 mph - N/A   Mostly Cloudy
6:53 PM 60.1 °F 44.1 °F 55% 30.08 in 10.0 mi North 4.6 mph - N/A   Partly Cloudy
7:53 PM 57.9 °F 44.1 °F 60% 30.08 in 10.0 mi Calm Calm - N/A   Scattered Clouds
8:53 PM 57.0 °F 44.1 °F 62% 30.08 in 10.0 mi ENE 3.5 mph - N/A   Partly Cloudy
9:53 PM 55.9 °F 44.1 °F 64% 30.09 in 10.0 mi East 4.6 mph - N/A   Scattered Clouds
10:53 PM 55.0 °F 44.1 °F 67% 30.08 in 10.0 mi ENE 3.5 mph - N/A   Scattered Clouds
11:53 PM 55.0 °F 44.1 °F 67% 30.07 in 10.0 mi Calm Calm - N/A   Scattered Clouds